Location: Ianile?ti
(46.2167°N, 22.7333°E)
Time: 14:49:08
(UTC+00:00)

Daily predictions for brighter satellites

Satellite Brightness Start Highest point End
(mag) Time Altitude Azimuth Time Altitude Azimuth Time Altitude Azimuth
Okean-O 3.4 16:49:48 10° SE 16:53:44 33° ENE 16:57:43 10° N
Cosmos 2369 Rocket 3.6 16:51:33 10° SE 16:54:49 16° E 16:58:05 10° ENE
USA 276 2.1 16:52:50 10° WSW 16:55:57 77° SSE 16:59:07 10° ENE
Cosmos 1400 Rocket 4.0 16:52:48 10° SE 16:56:01 22° E 16:59:13 10° NE
CZ-3B R/B 3.8 16:44:02 10° NW 16:56:09 56° SW 16:59:46 10° SSE
Cosmos 2297 4.1 16:54:38 10° S 16:59:53 40° ESE 17:05:11 10° NE
CZ-2C R/B 2.7 16:54:45 10° NNE 17:00:18 81° ESE 17:05:53 10° SSW
Cosmos 1486 Rocket 4.0 16:55:35 10° S 17:00:45 62° ESE 17:06:00 10° NNE
Cosmos 1356 Rocket 3.6 16:58:17 10° SSW 17:02:33 83° W 17:06:53 10° N
Meteor 1-21 4.2 16:57:05 10° N 17:02:45 65° ENE 17:08:18 10° SSE
SKYMED 2 4.4 17:03:20 10° N 17:07:36 57° WNW 17:11:51 10° SSW
OBJECT-B 2.4 17:09:58 11° ESE 17:11:54 17° ENE 17:14:06 10° NNE
BREEZE-M DEB (TANK) 3.9 17:07:50 10° WNW 17:11:58 87° NNE 17:27:57 11° ESE
COSMOS 2455 3.0 17:06:21 10° NNW 17:12:22 62° NE 17:18:19 10° SE
BREEZE-M DEB (TANK) 1.9 17:11:27 10° WNW 17:13:31 56° SSW 17:15:12 13° SE
USA 305 4.4 17:10:58 10° WNW 17:14:41 29° N 17:18:25 10° NE
Cosmos 2181 Rocket 4.1 17:09:02 10° N 17:15:14 82° W 17:21:30 10° S
USA 186 3.0 17:19:53 16° ESE 17:21:08 20° ENE 17:23:28 10° NNE
Cosmos 1707 2.7 17:18:41 10° N 17:22:36 69° E 17:26:29 10° SSE
H-2A R/B 3.6 17:18:58 10° S 17:23:17 53° W 17:27:43 10° NNW
Cosmos 773 Rocket 4.5 17:19:42 10° N 17:24:42 42° ENE 17:29:21 12° SE
DMSP B5D2-2 4.1 17:20:01 10° NNE 17:25:18 63° ESE 17:30:32 10° S
Cosmos 1674 3.3 17:23:02 10° N 17:26:26 33° ENE 17:29:23 13° SE
ISS -3.0 17:23:21 10° W 17:26:39 51° NNW 17:29:48 11° ENE
BREEZE M DEB (TANK) 3.9 17:23:59 10° W 17:27:36 80° S 17:45:15 14° E
USA 307 4.5 17:24:42 10° WNW 17:28:26 29° N 17:32:12 10° NE
Okean O Rocket 3.9 17:25:27 10° SSW 17:29:14 28° W 17:33:01 10° NW
Cosmos 1908 Rocket 3.6 17:26:42 10° S 17:31:04 56° E 17:35:27 10° NNE
SeaSat 1 2.8 17:28:24 13° ESE 17:32:27 45° NE 17:37:09 10° NNW
Cosmos 1378 Rocket 3.7 17:28:52 10° N 17:33:17 81° W 17:37:42 10° S
IRS-1C Rocket 4.2 17:29:33 10° SSE 17:34:48 84° WSW 17:40:06 10° NNW
USA 281 4.5 17:31:08 10° ENE 17:34:47 16° E 17:34:47 16° E
Cosmos 2184 Rocket 4.0 17:28:49 10° S 17:35:09 78° E 17:41:27 10° N
KORONAS-FOTON 4.0 17:33:31 10° N 17:37:10 46° ENE 17:40:15 14° SSE
H-2A R/B 4.3 17:35:22 10° SSW 17:39:32 26° W 17:43:48 10° NW
USA 306 4.5 17:39:05 10° WNW 17:42:46 28° N 17:46:03 12° NE
In-Cosmos 22 4.1 17:37:54 10° NNW 17:43:13 86° W 17:48:30 10° S
YAOGAN 1 3.7 17:40:09 10° S 17:44:19 47° W 17:48:30 10° NNW
Cosmos 1346 Rocket 3.2 17:41:45 10° N 17:45:36 41° ENE 17:47:40 23° SE
USA 308 4.5 17:44:10 10° WNW 17:47:52 28° N 17:50:59 13° NE
Cosmos 1610 Rocket 4.4 17:42:26 10° S 17:48:36 66° E 17:54:44 10° NNE
Cosmos 1733 3.9 17:49:51 29° ESE 17:50:17 30° E 17:53:39 10° NNE
Cosmos 1461 3.3 17:46:27 10° NW 17:50:23 57° WSW 17:53:33 15° SSE
MetOp-A 4.1 17:45:09 10° SSE 17:50:31 90° ENE 17:55:55 10° NNW
ATLAS CENTAUR R/B 1.6 17:45:49 10° NW 17:50:31 88° NE 17:53:53 20° SE
Cosmos 1626 2.5 17:48:14 10° N 17:51:46 41° ENE 17:52:54 31° ESE
USA 215 3.3 17:46:49 16° SE 17:52:15 82° SW 17:58:52 10° NW
Ariane Rocket 3.9 17:50:30 23° E 17:52:15 29° ENE 17:56:36 10° N
Cosmos 1340 4.2 17:48:53 10° NNW 17:52:23 37° W 17:55:53 10° SSW
Cosmos 2154 Rocket 4.0 17:47:43 10° S 17:54:02 76° E 18:00:25 10° NNE
Cosmos 1238 Rocket 3.9 17:49:24 10° S 17:55:52 88° W 18:01:38 10° N
CSL-04 Rocket 3.7 17:51:57 10° SSE 17:57:18 85° WSW 18:02:46 10° NNW
SJ 16-02 1.9 17:53:47 10° SSE 17:57:46 34° ESE 18:01:48 10° NE
CZ-4B R/B 1.9 17:59:28 10° N 18:02:28 55° WNW 18:05:30 10° SSW
Sich 1 Rocket 4.3 18:06:47 33° E 18:06:47 33° E 18:10:41 10° NNE
SL-8 Rocket 4.4 18:02:43 18° SE 18:06:45 39° E 18:12:32 10° NNE
Nadezhda 3 Rocket 4.0 18:03:46 10° N 18:09:57 83° W 18:16:06 10° S
CZ-4 R/B 4.0 18:10:01 10° SW 18:12:54 20° W 18:15:47 10° NW
Meteor 1-24 Rocket 4.3 18:09:05 10° N 18:13:52 32° ENE 18:14:27 32° E
Lacrosse 5 rocket 1.4 18:10:10 10° NW 18:14:44 85° SW 18:16:05 44° SE
Cosmos 2297 Rocket 4.4 18:14:03 10° NNE 18:14:51 10° NNE 18:15:39 10° NE
MOS 1 4.4 18:14:59 32° SE 18:17:30 57° ENE 18:23:04 10° N
IRS-1A Rocket 4.5 18:15:40 32° SE 18:18:15 56° ENE 18:24:01 10° N
H-2A R/B 4.2 18:16:42 10° N 18:20:16 27° WNW 18:23:47 10° WSW
Cosmos 1782 Rocket 3.7 18:17:47 10° SSW 18:22:14 78° W 18:26:42 10° N
EO 1 Delta rocket 4.0 18:20:54 42° SE 18:22:17 58° ENE 18:27:32 10° N
Cosmos 1315 Rocket 2.7 18:23:22 63° E 18:23:22 63° E 18:27:21 10° NNE
APEX 4.1 18:21:33 10° NNW 18:26:20 41° NE 18:26:30 40° ENE
Cosmos 1833 4.3 18:23:17 10° NNW 18:28:52 59° ENE 18:30:13 46° ESE
SJ-6B 3.3 18:29:27 29° S 18:31:23 62° W 18:35:28 10° NNW
USA 276 3.2 18:29:17 10° W 18:32:02 40° NNW 18:32:02 40° NNW
Cosmos 1441 Rocket 4.3 18:28:44 10° N 18:31:06 31° NNE 18:31:06 31° NNE
Cosmos 158 Rocket 3.8 18:27:25 10° NNW 18:32:27 62° ENE 18:33:07 56° ESE
Helios 1A Rocket 2.8 18:32:23 70° SSE 18:32:49 84° ENE 18:36:55 10° NNW
Cosmos 1777 Rocket 4.0 18:27:59 10° SSW 18:33:15 83° WNW 18:38:31 10° NNE
Cosmos 1943 Rocket 3.2 18:28:34 10° SW 18:33:54 46° WNW 18:39:19 10° NNE
Cosmos 2227 Rocket 4.4 18:35:22 10° NNE 18:36:56 11° NNE 18:38:08 10° NE
Cosmos 2369 Rocket 2.2 18:32:25 10° SSW 18:38:05 83° WNW 18:43:46 10° NNE
SL-14 R/B 3.2 18:34:39 10° N 18:38:25 78° N 18:38:25 78° N
GENESIS II 4.5 18:37:08 10° SW 18:40:55 64° NW 18:41:38 51° N
Cosmos 2341 Rocket 3.9 18:34:37 10° S 18:40:56 86° E 18:47:21 10° N
Meteor 1-15 Rocket 4.1 18:36:26 10° S 18:41:59 85° E 18:47:37 10° NNE
OBJECT-B 2.8 18:42:53 22° SW 18:43:49 26° W 18:46:32 10° NW
BREEZE-M DEB (TANK) 3.4 18:39:13 10° W 18:45:04 54° NNW 18:45:09 54° N
Resurs 01 Rocket 2.0 18:46:34 52° NNE 18:46:34 52° NNE 18:50:14 10° N
Cosmos 1025 Rocket 2.9 18:42:12 10° N 18:46:34 81° W 18:46:44 78° SW
Cosmos 1805 4.2 18:45:05 18° SW 18:47:41 47° WNW 18:51:28 10° N
Cosmos 2366 rocket 3.8 18:47:01 49° SSE 18:48:33 65° E 18:54:38 10° NNE
SPOT 1/Viking Rocket 4.1 18:49:43 43° NE 18:49:43 43° NE 18:54:03 10° N
Cosmos 1975 Rocket 4.1 18:46:15 10° NNW 18:50:28 45° W 18:52:26 27° SSW
USA 186 4.2 18:51:22 17° WSW 18:51:47 18° W 18:53:56 10° NW
Cosmos 2218 Rocket 3.8 18:53:32 48° SSE 18:55:19 75° E 19:01:31 10° NNE
Cosmos 1680 Rocket 4.2 18:50:23 10° N 18:54:45 40° NE 18:54:45 40° NE
USA 305 4.1 18:51:33 10° NW 18:55:16 34° N 18:55:16 34° N
Resurs 1-3 4.0 18:57:47 55° SW 18:58:11 58° W 19:02:32 10° NNW
Meteor 2-5 Rocket 3.6 18:52:52 10° N 18:58:27 90° NNE 18:59:12 68° S
Cosmos 1300 Rocket 3.8 19:00:51 66° WNW 19:00:51 66° WNW 19:05:08 10° N
Meteor 1-22 Rocket 4.0 19:00:52 74° E 19:00:52 74° E 19:06:34 10° NNE
ISS -1.5 19:00:54 10° WNW 19:02:48 24° NW 19:02:48 24° NW
Atlas Centaur 2 4.2 18:57:53 10° SW 19:04:06 25° S 19:04:06 25° S
Cosmos 2263 4.3 18:59:26 10° SW 19:05:01 71° WNW 19:10:39 10° NNE
CZ-3 Stage 3 4.3 18:50:20 10° WSW 19:06:47 28° SSW 19:08:07 27° S
MetOp-B 4.2 19:07:51 63° NE 19:07:51 63° NE 19:12:38 10° N
USA 307 4.3 19:05:15 10° NW 19:08:31 33° N 19:08:31 33° N
SeaSat 1 4.1 19:08:11 22° SW 19:10:05 29° WSW 19:14:22 10° NW
Terra 3.9 19:19:47 17° NNE 19:19:47 17° NNE 19:21:16 10° N
Cosmos 1656 Rocket 4.1 19:12:54 10° SW 19:18:25 59° WNW 19:23:52 10° NNE
Cosmos 864 Rocket 4.5 19:17:24 51° SSW 19:19:05 79° W 19:25:20 10° N
USA 281 3.0 19:13:43 10° NNE 19:20:21 83° ESE 19:21:34 62° S
ATLAS CENTAUR R/B 4.2 19:26:23 10° WNW 19:28:49 14° WSW 19:30:03 13° SW
Ariane Rocket 4.0 19:30:42 40° WSW 19:31:03 40° W 19:35:51 10° NNW
SJ 16-02 3.4 19:32:39 10° WSW 19:36:24 26° WNW 19:40:11 10° N
CENTAUR R/B 4.4 19:58:06 20° NE 19:58:06 20° NE 20:00:10 10° NE
Lacrosse 5 rocket 4.3 19:50:46 10° W 19:51:42 13° W 19:51:42 13° W
Cosmos 2297 Rocket 3.7 19:55:14 10° NNW 19:58:26 29° N 19:58:26 29° N
Cosmos 2227 Rocket 3.9 20:17:08 10° NNW 20:19:56 27° N 20:19:56 27° N
Resurs 01 Rocket 4.5 20:24:09 13° WNW 20:24:09 13° WNW 20:25:21 10° NW
CENTAUR R/B 4.2 21:45:13 30° NNW 21:45:13 30° NNW 21:51:13 10° NNE
Cosmos 2344 4.5 22:01:05 10° NW 22:09:23 60° NNE 22:09:23 60° NNE
ATLAS 3B R/B 4.3 22:50:09 27° NNE 22:50:09 27° NNE 22:53:09 10° NE
CZ-2D R/B 4.5 23:32:55 10° NNE 23:34:33 19° NE 23:34:33 19° NE
SL-16 R/B 4.0 23:50:55 32° N 23:50:55 32° N 23:54:12 10° N
